Home   Weather   Lae   Past weeks

Flag for Papua New Guinea Past Weather in Lae, Papua New Guinea — Yesterday and Last 2 Weeks

Now
79 °F

Clear.


Feels Like: 82 °F
Forecast: 74 / 88 °F
Wind: 8 mph from Southeast

Location: Moresby

Current Time: Oct 22, 2018 at 10:15:27 pm

Latest Report: Oct 22, 2018 at 9:00 pm


Visibility: N/A

Pressure: 29.86 "Hg

Humidity: 84%

Dew Point: 73 °F

Location of LaeLocation

Past Weather in Lae — Graph

°F

Lae Temperature Yesterday

Maximum temperature yesterday: 88 °F (at 1:00 pm)
Minimum temperature yesterday: 75 °F (at 6:00 am)
Average temperature yesterday: 82 °F

High & Low Weather Summary for the Past Weeks

 TemperatureHumidityPressure
High91 °F (Oct 14, 11:00 am)100% (Oct 17, 1:00 am)30.09 "Hg (Oct 17, 1:00 am)
Low59 °F (Oct 18, 6:00 am)43% (Oct 8, 11:00 am)29.71 "Hg (Oct 17, 4:00 pm)
Average81 °F77%29.83 "Hg
* Reported Oct 7 9:00 pm — Oct 22 9:00 pm, Lae. Weather by CustomWeather, © 2018

Note: Actual official high and low records may vary slightly from our data, if they occured in-between our weather recording intervals... More about our weather records

Advertising

Lae Weather History for the Previous 24 Hours

Scroll right to see more
 ConditionsComfort  
Time TempWeatherWind HumidityBarometerVisibility
9:00 pm
Mon, Oct 22
79 °FClear.8 mph84%29.86 "HgN/A
8:00 pm79 °FPassing clouds.N/A89%29.83 "HgN/A
7:00 pm81 °FPassing clouds.12 mph84%29.83 "HgN/A
6:00 pm81 °FScattered clouds.8 mph79%29.80 "HgN/A
5:00 pm84 °FScattered clouds.13 mph70%29.77 "HgN/A
4:00 pm86 °FScattered clouds.13 mph66%29.74 "HgN/A
3:00 pm88 °FScattered clouds.23 mph66%29.74 "HgN/A
2:00 pm86 °FScattered clouds.9 mph66%29.77 "HgN/A
1:00 pm84 °FBroken clouds.6 mph74%29.77 "HgN/A
12:00 pm79 °FBroken clouds.6 mph89%29.83 "HgN/A
11:00 am84 °FBroken clouds.5 mph70%29.86 "HgN/A
10:01 am82 °FBroken clouds.2 mph79%29.89 "HgN/A
9:00 am82 °FBroken clouds.5 mph79%29.89 "HgN/A
8:00 am81 °FScattered clouds.5 mph79%29.86 "HgN/A
7:00 am77 °FDrizzle. Cloudy.N/A89%29.86 "HgN/A
6:00 am75 °FRain. Broken clouds.3 mph94%29.83 "HgN/A
1:00 am77 °FPassing clouds.5 mph89%29.80 "HgN/A
11:00 pm
Sun, Oct 21
79 °FPassing clouds.5 mph84%29.86 "HgN/A
10:00 pm81 °FPassing clouds.2 mph84%29.86 "HgN/A
Weather by CustomWeather, © 2018

See weather overview